ProjectID,Date,Electric Generation,Electric Utility Import,Facility Electric Load
,YYYY-MM-DD,kW,kW,kW
470,2008-10-01,0.0,,0.0
470,2008-10-02,0.0,,0.0
470,2008-10-03,0.0,,0.0
470,2008-10-04,0.0,,0.0
470,2008-10-05,0.0,,0.0
470,2008-10-06,0.0,,0.0
470,2008-10-07,0.0,,0.0
470,2008-10-08,0.0,,0.0
470,2008-10-09,0.0,,0.0
470,2008-10-10,0.0,,0.0
470,2008-10-11,0.0,,0.0
470,2008-10-12,0.0,,0.0
470,2008-10-13,0.0,,0.0
470,2008-10-14,0.0,,0.0
470,2008-10-15,0.0,,0.0
470,2008-10-16,0.0,,0.0
470,2008-10-17,0.0,,0.0
470,2008-10-18,0.0,,0.0
470,2008-10-19,0.0,,0.0
470,2008-10-20,0.0,,0.0
470,2008-10-21,0.0,,0.0
470,2008-10-22,0.0,,0.0
470,2008-10-23,0.0,375.63,375.63
470,2008-10-24,265.5416666666667,532.5525,798.0941666666668
470,2008-10-25,216.33333333333334,541.2516666666667,757.585
470,2008-10-26,163.70833333333334,499.60791666666665,663.31625
470,2008-10-27,331.1666666666667,474.33833333333337,805.5050000000001
470,2008-10-28,273.3333333333333,519.60875,792.9420833333334
470,2008-10-29,296.0,506.06708333333336,802.0670833333334
470,2008-10-30,285.6666666666667,519.49875,805.1654166666667
470,2008-10-31,308.5416666666667,493.7325,802.2741666666667
470,2008-11-01,195.91666666666666,556.21125,752.1279166666666
470,2008-11-02,186.45833333333334,471.2304166666667,657.68875
470,2008-11-03,276.0,524.595,800.595
470,2008-11-04,271.9166666666667,580.8774999999999,852.7941666666666
470,2008-11-05,338.375,531.5154166666667,869.8904166666667
470,2008-11-06,405.25,560.06375,965.31375
470,2008-11-07,419.375,601.7329166666667,1021.1079166666667
470,2008-11-08,384.5833333333333,543.3645833333334,927.9479166666667
470,2008-11-09,283.4583333333333,460.6891666666667,744.1475
470,2008-11-10,370.9583333333333,490.1404166666667,861.09875
470,2008-11-11,370.75,515.2120833333333,885.9620833333333
470,2008-11-12,384.5833333333333,476.18291666666664,860.7662499999999
470,2008-11-13,384.5,498.0545833333333,882.5545833333333
470,2008-11-14,384.75,578.2158333333333,962.9658333333333
470,2008-11-15,412.5,488.4666666666667,900.9666666666667
470,2008-11-16,277.8333333333333,457.84083333333336,735.6741666666667
470,2008-11-17,378.7083333333333,476.1641666666667,854.8725
470,2008-11-18,384.5,580.1083333333333,964.6083333333333
470,2008-11-19,344.875,649.03625,993.91125
470,2008-11-20,368.7083333333333,552.0983333333334,920.8066666666666
470,2008-11-21,361.5416666666667,590.26125,951.8029166666668
470,2008-11-22,354.25,536.7754166666667,891.0254166666667
470,2008-11-23,245.20833333333334,555.6908333333333,800.8991666666667
470,2008-11-24,357.0,581.8658333333334,938.8658333333334
470,2008-11-25,339.4583333333333,617.8716666666667,957.3299999999999
470,2008-11-26,305.875,663.48875,969.36375
470,2008-11-27,99.29166666666667,492.75708333333336,592.04875
470,2008-11-28,259.4583333333333,792.2679166666667,1051.72625
470,2008-11-29,301.125,673.09875,974.22375
470,2008-11-30,147.625,667.195,814.82
470,2008-12-01,243.625,684.7933333333334,928.4183333333334
470,2008-12-02,358.375,552.2295833333334,910.6045833333334
470,2008-12-03,481.4166666666667,508.73875,990.1554166666667
470,2008-12-04,409.2916666666667,511.9670833333333,921.25875
470,2008-12-05,374.875,673.2829166666667,1048.1579166666666
470,2008-12-06,321.0,719.91125,1040.91125
470,2008-12-07,162.54166666666666,771.4525,933.9941666666666
470,2008-12-08,386.875,630.85875,1017.73375
470,2008-12-09,317.5416666666667,662.8041666666667,980.3458333333333
470,2008-12-10,441.2083333333333,592.735,1033.9433333333334
470,2008-12-11,344.0833333333333,541.29125,885.3745833333332
470,2008-12-12,341.5833333333333,711.5187500000001,1053.1020833333334
470,2008-12-13,286.0,752.2691666666666,1038.2691666666665
470,2008-12-14,144.95833333333334,820.4533333333334,965.4116666666667
470,2008-12-15,382.2083333333333,733.1916666666666,1115.3999999999999
470,2008-12-16,429.0,599.5191666666666,1028.5191666666665
470,2008-12-17,387.125,578.9145833333333,966.0395833333333
470,2008-12-18,419.6666666666667,596.7191666666666,1016.3858333333333
470,2008-12-19,432.125,497.24499999999995,929.3699999999999
470,2008-12-20,215.5,610.1557142857143,825.6557142857143
470,2008-12-21,228.0,824.8091666666666,1052.8091666666664
470,2008-12-22,327.0833333333333,720.2966666666666,1047.3799999999999
470,2008-12-23,332.5416666666667,764.6112499999999,1097.1529166666667
470,2008-12-24,243.375,666.2687500000001,909.6437500000001
470,2008-12-25,51.916666666666664,387.75083333333333,439.6675
470,2008-12-26,365.5833333333333,547.2837499999999,912.8670833333333
470,2008-12-27,361.4583333333333,473.38208333333336,834.8404166666667
470,2008-12-28,147.70833333333334,613.3870833333334,761.0954166666668
470,2008-12-29,296.125,519.8083333333333,815.9333333333333
470,2008-12-30,285.0416666666667,560.535,845.5766666666666
470,2008-12-31,324.5833333333333,531.6991666666667,856.2825
470,2009-01-01,327.0416666666667,528.9225,855.9641666666666
470,2009-01-02,344.0833333333333,573.06375,917.1470833333333
470,2009-01-03,300.0,533.6141666666666,833.6141666666666
470,2009-01-04,186.79166666666666,561.7645833333333,748.55625
470,2009-01-05,322.8333333333333,520.2308333333334,843.0641666666668
470,2009-01-06,317.8333333333333,535.0665217391305,852.8998550724639
470,2009-01-07,0.0,,0.0
470,2009-01-08,0.0,,0.0
470,2009-01-09,0.0,,0.0
470,2009-01-10,0.0,,0.0
470,2009-01-11,0.0,653.75,653.75
470,2009-01-12,318.8333333333333,669.7704166666666,988.60375
470,2009-01-13,312.9583333333333,722.8620833333333,1035.8204166666667
470,2009-01-14,298.75,608.56625,907.31625
470,2009-01-15,327.125,598.8666666666667,925.9916666666667
470,2009-01-16,369.2916666666667,543.8116666666666,913.1033333333332
470,2009-01-17,372.5833333333333,469.72208333333333,842.3054166666666
470,2009-01-18,220.08333333333334,526.6654166666666,746.74875
470,2009-01-19,296.6666666666667,607.7070833333333,904.37375
470,2009-01-20,308.9166666666667,591.1333333333333,900.05
470,2009-01-21,362.3333333333333,537.24125,899.5745833333333
470,2009-01-22,365.5416666666667,540.9645833333333,906.5062499999999
470,2009-01-23,238.45833333333334,614.6404166666667,853.0987500000001
470,2009-01-24,251.91666666666666,512.96,764.8766666666667
470,2009-01-25,235.0,500.09375,735.09375
470,2009-01-26,312.6666666666667,591.09375,903.7604166666667
470,2009-01-27,329.2916666666667,563.2120833333333,892.5037500000001
470,2009-01-28,333.9583333333333,589.0191666666666,922.9775
470,2009-01-29,339.6666666666667,745.8779166666667,1085.5445833333333
470,2009-01-30,154.95833333333334,553.2575,708.2158333333334
470,2009-01-31,64.04166666666667,696.8308333333333,760.8725
470,2009-02-01,185.66666666666666,497.11125,682.7779166666667
470,2009-02-02,322.3333333333333,492.365,814.6983333333333
470,2009-02-03,376.4583333333333,515.2375000000001,891.6958333333334
470,2009-02-04,366.9583333333333,538.6575,905.6158333333333
470,2009-02-05,378.875,527.01,905.885
470,2009-02-06,375.75,522.8608333333333,898.6108333333333
470,2009-02-07,265.5,532.7379166666666,798.2379166666666
470,2009-02-08,175.125,498.9845833333333,674.1095833333334
470,2009-02-09,327.125,496.4270833333333,823.5520833333333
470,2009-02-10,326.7916666666667,483.17333333333335,809.965
470,2009-02-11,322.4166666666667,489.56,811.9766666666667
470,2009-02-12,352.5416666666667,451.24666666666667,803.7883333333334
470,2009-02-13,363.5416666666667,453.87083333333334,817.4125
470,2009-02-14,278.75,534.3795833333334,813.1295833333334
470,2009-02-15,167.91666666666666,544.0854166666667,712.0020833333333
470,2009-02-16,305.9583333333333,512.3058333333333,818.2641666666666
470,2009-02-17,361.0416666666667,505.23083333333335,866.2725
470,2009-02-18,348.0416666666667,496.03875,844.0804166666667
470,2009-02-19,340.4583333333333,460.3554166666667,800.81375
470,2009-02-20,372.1666666666667,541.0479166666667,913.2145833333334
470,2009-02-21,312.5,589.1433333333333,901.6433333333333
470,2009-02-22,171.54166666666666,512.0975,683.6391666666666
470,2009-02-23,325.625,562.0508333333333,887.6758333333333
470,2009-02-24,323.3333333333333,560.8275,884.1608333333334
470,2009-02-25,296.4166666666667,548.3258333333333,844.7425000000001
470,2009-02-26,267.7083333333333,554.68875,822.3970833333333
470,2009-02-27,270.2083333333333,533.79875,804.0070833333334
470,2009-02-28,272.4583333333333,486.90166666666664,759.3599999999999
470,2009-03-01,150.25,561.9979166666667,712.2479166666667
470,2009-03-02,223.20833333333334,669.1745833333333,892.3829166666667
470,2009-03-03,254.75,641.1179166666667,895.8679166666667
470,2009-03-04,239.375,627.49375,866.86875
470,2009-03-05,273.0416666666667,595.0845833333334,868.12625
470,2009-03-06,243.16666666666666,570.5791666666667,813.7458333333333
470,2009-03-07,263.2916666666667,472.17625,735.4679166666667
470,2009-03-08,186.5,451.74545454545455,638.2454545454545
470,2009-03-09,275.1666666666667,517.2545833333334,792.4212500000001
470,2009-03-10,275.125,525.5729166666666,800.6979166666666
470,2009-03-11,306.375,504.39208333333335,810.7670833333334
470,2009-03-12,366.25,467.1679166666667,833.4179166666668
470,2009-03-13,325.0416666666667,538.42875,863.4704166666668
470,2009-03-14,292.875,501.25291666666664,794.1279166666666
470,2009-03-15,186.45833333333334,446.06625,632.5245833333333
470,2009-03-16,327.0416666666667,456.285,783.3266666666667
470,2009-03-17,259.4583333333333,558.9504166666667,818.40875
470,2009-03-18,262.5833333333333,519.23375,781.8170833333334
470,2009-03-19,275.1666666666667,509.4708333333333,784.6375
470,2009-03-20,275.0833333333333,563.9720833333333,839.0554166666666
470,2009-03-21,275.125,576.7195833333334,851.8445833333334
470,2009-03-22,186.5,484.1054166666667,670.6054166666668
470,2009-03-23,275.125,574.60375,849.72875
470,2009-03-24,263.1666666666667,574.9395833333333,838.10625
470,2009-03-25,275.0833333333333,506.82625,781.9095833333333
470,2009-03-26,303.3333333333333,484.6054166666667,787.93875
470,2009-03-27,322.0416666666667,463.46791666666667,785.5095833333334
470,2009-03-28,326.0833333333333,408.6545833333333,734.7379166666666
470,2009-03-29,161.04166666666666,480.16083333333336,641.2025
470,2009-03-30,331.25,443.20875,774.45875
470,2009-03-31,321.75,459.53999999999996,781.29
470,2009-04-01,327.125,445.4433333333333,772.5683333333334
470,2009-04-02,327.0833333333333,464.3566666666666,791.4399999999999
470,2009-04-03,327.125,446.1054166666667,773.2304166666668
470,2009-04-04,317.75,402.12125,719.8712499999999
470,2009-04-05,147.95833333333334,484.05125,632.0095833333334
470,2009-04-06,292.25,474.03666666666663,766.2866666666666
470,2009-04-07,327.0,501.7808333333333,828.7808333333332
470,2009-04-08,327.125,551.8504166666667,878.9754166666667
470,2009-04-09,327.0833333333333,484.72208333333333,811.8054166666666
470,2009-04-10,350.625,454.65291666666667,805.2779166666667
470,2009-04-11,324.875,422.38625,747.26125
470,2009-04-12,2.5,410.8025,413.3025
470,2009-04-13,320.2916666666667,482.7704166666667,803.0620833333334
470,2009-04-14,313.2916666666667,490.85041666666666,804.1420833333334
470,2009-04-15,259.7916666666667,564.4875000000001,824.2791666666667
470,2009-04-16,220.91666666666666,594.1783333333334,815.095
470,2009-04-17,103.70833333333333,742.7895833333333,846.4979166666667
470,2009-04-18,330.9583333333333,493.02250000000004,823.9808333333333
470,2009-04-19,169.54166666666666,473.15083333333337,642.6925
470,2009-04-20,312.4166666666667,469.36999999999995,781.7866666666666
470,2009-04-21,327.0,469.58958333333334,796.5895833333334
470,2009-04-22,322.75,477.03458333333333,799.7845833333333
470,2009-04-23,340.7916666666667,447.905,788.6966666666667
470,2009-04-24,321.0833333333333,532.8554166666667,853.93875
470,2009-04-25,347.625,491.1870833333333,838.8120833333332
470,2009-04-26,216.20833333333334,521.2258333333333,737.4341666666667
470,2009-04-27,361.9166666666667,539.0525,900.9691666666668
470,2009-04-28,378.9583333333333,568.7312499999999,947.6895833333333
470,2009-04-29,369.375,495.09041666666667,864.4654166666667
470,2009-04-30,241.5,562.8529166666666,804.3529166666666
470,2009-05-01,324.9166666666667,535.4920833333333,860.40875
470,2009-05-02,271.6666666666667,594.1620833333333,865.8287499999999
470,2009-05-03,176.125,507.09875000000005,683.2237500000001
470,2009-05-04,300.5,445.1408333333333,745.6408333333334
470,2009-05-05,309.3333333333333,475.47583333333336,784.8091666666667
470,2009-05-06,304.875,483.9358333333333,788.8108333333332
470,2009-05-07,376.5416666666667,508.87416666666667,885.4158333333334
470,2009-05-08,389.9166666666667,538.79125,928.7079166666667
470,2009-05-09,371.4166666666667,485.84916666666663,857.2658333333334
470,2009-05-10,181.54166666666666,879.7745833333333,1061.31625
470,2009-05-11,376.9583333333333,494.81333333333333,871.7716666666666
470,2009-05-12,353.875,550.1020833333333,903.9770833333333
470,2009-05-13,103.70833333333333,747.2495833333334,850.9579166666667
470,2009-05-14,372.5,496.2129166666667,868.7129166666666
470,2009-05-15,377.3333333333333,539.4183333333334,916.7516666666668
470,2009-05-16,334.5416666666667,479.52708333333334,814.06875
470,2009-05-17,145.58333333333334,464.4045833333333,609.9879166666666
470,2009-05-18,300.0,464.4041666666667,764.4041666666667
470,2009-05-19,300.4166666666667,531.3445833333334,831.76125
470,2009-05-20,331.5833333333333,519.2458333333333,850.8291666666667
470,2009-05-21,376.6666666666667,538.2370833333333,914.90375
470,2009-05-22,325.7916666666667,665.85875,991.6504166666666
470,2009-05-23,316.875,676.0820833333333,992.9570833333333
470,2009-05-24,195.41666666666666,699.9516666666667,895.3683333333333
470,2009-05-25,219.95833333333334,450.06166666666667,670.02
470,2009-05-26,345.2916666666667,538.45375,883.7454166666666
470,2009-05-27,365.2083333333333,548.9666666666667,914.175
470,2009-05-28,311.4166666666667,560.0975,871.5141666666666
470,2009-05-29,316.0,578.05625,894.05625
470,2009-05-30,337.9583333333333,484.41625,822.3745833333332
470,2009-05-31,208.75,496.4166666666667,705.1666666666667
470,2009-06-01,362.8333333333333,555.9904166666666,918.82375
470,2009-06-02,378.7916666666667,571.1625,949.9541666666667
470,2009-06-03,381.0,558.5754166666667,939.5754166666667
470,2009-06-04,403.7083333333333,503.16083333333336,906.8691666666666
470,2009-06-05,404.7083333333333,499.34458333333333,904.0529166666666
470,2009-06-06,298.4583333333333,530.0279166666667,828.4862499999999
470,2009-06-07,147.70833333333334,555.015,702.7233333333334
470,2009-06-08,410.1666666666667,520.9645833333333,931.1312499999999
470,2009-06-09,410.25,498.0641666666667,908.3141666666668
470,2009-06-10,345.4583333333333,550.97625,896.4345833333334
470,2009-06-11,377.3333333333333,531.2945833333333,908.6279166666666
470,2009-06-12,390.75,528.8458333333333,919.5958333333333
470,2009-06-13,392.625,459.6070833333333,852.2320833333333
470,2009-06-14,207.95833333333334,481.43,689.3883333333333
470,2009-06-15,405.0,509.99125000000004,914.99125
470,2009-06-16,391.2916666666667,507.85125,899.1429166666667
470,2009-06-17,373.75,511.6958333333334,885.4458333333334
470,2009-06-18,404.0,559.2145833333333,963.2145833333333
470,2009-06-19,404.2083333333333,563.79,967.9983333333332
470,2009-06-20,290.75,776.6883333333334,1067.4383333333335
470,2009-06-21,181.20833333333334,531.5508333333333,712.7591666666667
470,2009-06-22,403.3333333333333,531.46375,934.7970833333334
470,2009-06-23,400.7083333333333,576.1975,976.9058333333332
470,2009-06-24,405.25,584.6408333333333,989.8908333333333
470,2009-06-25,408.1666666666667,583.8616666666667,992.0283333333334
470,2009-06-26,406.6666666666667,597.43625,1004.1029166666667
470,2009-06-27,290.625,598.2420833333333,888.8670833333333
470,2009-06-28,181.29166666666666,546.3808333333333,727.6724999999999
470,2009-06-29,410.2083333333333,579.10875,989.3170833333334
470,2009-06-30,416.0416666666667,603.58625,1019.6279166666666
470,2009-07-01,494.7083333333333,558.6875,1053.3958333333333
470,2009-07-02,464.7083333333333,574.9825,1039.6908333333333
470,2009-07-03,491.25,526.145,1017.395
470,2009-07-04,415.625,489.6270833333333,905.2520833333333
470,2009-07-05,287.5833333333333,473.30541666666664,760.88875
470,2009-07-06,453.4583333333333,573.3845833333334,1026.8429166666667
470,2009-07-07,474.25,573.6895833333333,1047.9395833333333
470,2009-07-08,432.8333333333333,575.2858333333334,1008.1191666666666
470,2009-07-09,422.1666666666667,567.5891666666666,989.7558333333334
470,2009-07-10,392.0,611.1341666666666,1003.1341666666666
470,2009-07-11,454.75,522.3765217391305,977.1265217391305
470,2009-07-12,297.5833333333333,426.28458333333333,723.8679166666666
470,2009-07-13,451.4583333333333,575.4662500000001,1026.9245833333334
470,2009-07-14,470.0,516.6008333333333,986.6008333333333
470,2009-07-15,419.9166666666667,568.53,988.4466666666667
470,2009-07-16,447.9166666666667,572.09375,1020.0104166666667
470,2009-07-17,452.375,584.5983333333334,1036.9733333333334
470,2009-07-18,467.625,481.34125,948.96625
470,2009-07-19,291.2083333333333,466.80625000000003,758.0145833333333
470,2009-07-20,409.2916666666667,637.0883333333334,1046.38
470,2009-07-21,444.5833333333333,677.2604166666666,1121.84375
470,2009-07-22,479.2083333333333,627.46,1106.6683333333333
470,2009-07-23,418.875,662.0683333333333,1080.9433333333332
470,2009-07-24,440.3333333333333,642.3966666666666,1082.73
470,2009-07-25,448.0,516.3416666666667,964.3416666666667
470,2009-07-26,293.5,505.47583333333336,798.9758333333334
470,2009-07-27,337.9583333333333,772.6045833333333,1110.5629166666665
470,2009-07-28,453.0833333333333,687.5941666666666,1140.6775
470,2009-07-29,447.5,675.2116666666667,1122.7116666666666
470,2009-07-30,406.2916666666667,710.58625,1116.8779166666666
470,2009-07-31,402.9583333333333,729.6479166666667,1132.60625
470,2009-08-01,387.0,619.6545833333333,1006.6545833333333
470,2009-08-02,316.375,482.7925,799.1675
470,2009-08-03,396.5833333333333,710.0925000000001,1106.6758333333335
470,2009-08-04,442.875,654.4654166666667,1097.3404166666667
470,2009-08-05,410.4166666666667,715.2633333333333,1125.68
470,2009-08-06,424.3333333333333,638.0383333333333,1062.3716666666667
470,2009-08-07,395.6666666666667,597.3504166666667,993.0170833333334
470,2009-08-08,385.1666666666667,586.6095833333333,971.7762499999999
470,2009-08-09,304.3333333333333,506.78375,811.1170833333333
470,2009-08-10,384.0833333333333,782.2366666666667,1166.32
470,2009-08-11,413.25,725.3641666666667,1138.6141666666667
470,2009-08-12,467.5833333333333,667.6170833333333,1135.2004166666666
470,2009-08-13,466.375,644.80875,1111.1837500000001
470,2009-08-14,465.4166666666667,659.7379166666666,1125.1545833333332
470,2009-08-15,459.3333333333333,545.1437500000001,1004.4770833333334
470,2009-08-16,338.375,519.75125,858.12625
470,2009-08-17,392.9583333333333,772.2358333333333,1165.1941666666667
470,2009-08-18,359.0,831.6158333333333,1190.6158333333333
470,2009-08-19,301.25,783.6330769230769,1084.883076923077
470,2009-08-20,448.1666666666667,710.9254166666666,1159.0920833333332
470,2009-08-21,476.5,672.9133333333333,1149.4133333333334
470,2009-08-22,464.25,561.5841666666666,1025.8341666666665
470,2009-08-23,350.0833333333333,468.50874999999996,818.5920833333332
470,2009-08-24,461.0416666666667,699.995,1161.0366666666666
470,2009-08-25,414.0416666666667,695.7191666666666,1109.7608333333333
470,2009-08-26,408.8333333333333,671.5241666666667,1080.3575
470,2009-08-27,443.9166666666667,660.7966666666667,1104.7133333333334
470,2009-08-28,412.4166666666667,682.8508333333333,1095.2675
470,2009-08-29,393.875,583.7675,977.6425
470,2009-08-30,322.4166666666667,431.53541666666666,753.9520833333333
470,2009-08-31,416.625,546.6579166666667,963.2829166666667
470,2009-09-01,402.5,551.4417391304348,953.9417391304348
470,2009-09-02,0.0,,0.0
470,2009-09-03,356.7083333333333,645.199375,1001.9077083333334
470,2009-09-04,398.375,547.0675,945.4425
470,2009-09-05,381.5833333333333,459.5541666666666,841.1374999999999
470,2009-09-06,310.625,403.58750000000003,714.2125000000001
470,2009-09-07,348.9166666666667,528.66125,877.5779166666666
470,2009-09-08,404.4166666666667,540.9016666666666,945.3183333333334
470,2009-09-09,403.375,545.6195833333334,948.9945833333334
470,2009-09-10,422.6666666666667,587.2183333333334,1009.885
470,2009-09-11,401.625,572.9091666666667,974.5341666666667
470,2009-09-12,399.2916666666667,535.4408333333333,934.7325000000001
470,2009-09-13,256.7083333333333,436.4145833333334,693.1229166666667
470,2009-09-14,378.8333333333333,564.5954166666667,943.42875
470,2009-09-15,374.125,561.57875,935.70375
470,2009-09-16,400.9583333333333,513.7320833333333,914.6904166666666
470,2009-09-17,375.0,561.7678260869565,936.7678260869565
470,2009-09-18,0.0,317.44,317.44
470,2009-09-19,298.6666666666667,461.9816666666666,760.6483333333333
470,2009-09-20,236.75,427.43833333333333,664.1883333333333
470,2009-09-21,360.2083333333333,542.5529166666666,902.76125
470,2009-09-22,391.7916666666667,519.2858333333334,911.0775000000001
470,2009-09-23,394.8333333333333,527.6875,922.5208333333333
470,2009-09-24,450.0416666666667,491.3025,941.3441666666668
470,2009-09-25,444.1666666666667,448.17,892.3366666666667
470,2009-09-26,348.7916666666667,392.11375,740.9054166666667
470,2009-09-27,316.5,330.1608333333333,646.6608333333334
470,2009-09-28,403.0416666666667,466.53999999999996,869.5816666666667
470,2009-09-29,413.4583333333333,400.85125,814.3095833333333
470,2009-09-30,416.125,380.115,796.24
470,2009-10-01,407.125,380.47166666666664,787.5966666666666
470,2009-10-02,411.0,386.66625,797.66625
470,2009-10-03,308.0,423.96791666666667,731.9679166666667
470,2009-10-04,276.1666666666667,384.9904166666667,661.1570833333334
470,2009-10-05,399.375,410.78375,810.15875
470,2009-10-06,370.7083333333333,449.98083333333335,820.6891666666667
470,2009-10-07,408.2083333333333,477.05375000000004,885.2620833333333
470,2009-10-08,407.0,404.49499999999995,811.4949999999999
470,2009-10-09,435.5416666666667,434.2483333333333,869.79
470,2009-10-10,369.4583333333333,419.67375,789.1320833333333
470,2009-10-11,183.58333333333334,427.54333333333335,611.1266666666667
470,2009-10-12,358.6666666666667,360.46125,719.1279166666667
470,2009-10-13,392.0416666666667,350.3570833333333,742.3987500000001
470,2009-10-14,369.7083333333333,360.06666666666666,729.775
470,2009-10-15,380.375,350.61125,730.9862499999999
470,2009-10-16,382.3333333333333,354.41291666666666,736.7462499999999
470,2009-10-17,262.375,494.9891666666667,757.3641666666667
470,2009-10-18,203.33333333333334,372.97291666666666,576.30625
470,2009-10-19,286.2083333333333,449.7679166666667,735.9762499999999
470,2009-10-20,410.1666666666667,373.03375,783.2004166666667
470,2009-10-21,413.9166666666667,389.90375,803.8204166666667
470,2009-10-22,311.0,555.6645833333333,866.6645833333333
470,2009-10-23,418.0,417.8304166666667,835.8304166666667
470,2009-10-24,376.25,514.3041666666667,890.5541666666667
470,2009-10-25,294.1666666666667,318.59458333333333,612.76125
470,2009-10-26,398.9166666666667,373.39416666666665,772.3108333333333
470,2009-10-27,365.1666666666667,392.20458333333335,757.37125
470,2009-10-28,395.7916666666667,414.00624999999997,809.7979166666667
470,2009-10-29,377.625,383.5079166666667,761.1329166666667
470,2009-10-30,376.7083333333333,382.2829166666667,758.99125
470,2009-10-31,391.0,420.8616666666667,811.8616666666667
470,2009-11-01,261.8333333333333,355.1566666666667,616.99
470,2009-11-02,361.25,383.33874999999995,744.5887499999999
470,2009-11-03,371.125,376.3441666666667,747.4691666666668
470,2009-11-04,382.4166666666667,380.7995833333334,763.2162500000001
470,2009-11-05,361.0,405.7425,766.7425000000001
470,2009-11-06,321.1666666666667,450.31,771.4766666666667
470,2009-11-07,316.75,382.73,699.48